Location: ?
(35.4996°N, 139.3166°E)
Time: 04:44:17
(UTC+00:00)

SL-16 R/B - Visible Passes

Search period start: 16 July 2025 00:00
Search period end: 26 July 2025 00:00
Orbit: 841 x 847 km, 71.0° (Epoch: 15 July)

Date Brightness Start Highest point End Pass type
(mag) Time Alt. Az. Time Alt. Az. Time Alt. Az.
21 Jul 2.8 19:00:57 10° S 19:06:27 58° ESE 19:12:00 10° NNE visible
22 Jul 2.9 18:46:33 10° S 18:52:01 55° ESE 18:57:32 10° NNE visible
23 Jul 2.9 18:32:08 10° S 18:37:36 53° ESE 18:43:04 10° NNE visible
24 Jul 2.9 18:17:45 10° S 18:23:09 50° ESE 18:28:36 10° NNE visible
25 Jul 3.0 18:04:11 14° S 18:08:44 48° ESE 18:14:09 10° NNE visible
